| time (UTC) | temp F | wind direction | speed MPH | gust MPH | rain 1hr in | rain 24hr in | rain mn in | humidity % | barometer mb |
| 20260507115122 | 43 | 123 | 0.0 | 0.0 | 0.00 | 0.00 | 0.00 | 71 | 1012.8 |
| 20260507114619 | 43 | 120 | 0.0 | 0.0 | 0.00 | 0.00 | 0.00 | 72 | 1012.6 |
| 20260507114116 | 42 | 116 | 0.0 | 0.0 | 0.00 | 0.00 | 0.00 | 72 | 1012.6 |
| 20260507113613 | 42 | 115 | 0.0 | 0.0 | 0.00 | 0.00 | 0.00 | 74 | 1012.5 |
| 20260507113110 | 42 | 120 | 0.0 | 0.0 | 0.00 | 0.00 | 0.00 | 74 | 1012.3 |
| 20260507112608 | 42 | 120 | 0.0 | 0.0 | 0.00 | 0.00 | 0.00 | 74 | 1012.6 |
| 20260507112104 | 41 | 129 | 0.0 | 0.0 | 0.00 | 0.00 | 0.00 | 74 | 1012.3 |
| 20260507111602 | 41 | 123 | 0.0 | 0.0 | 0.00 | 0.00 | 0.00 | 74 | 1012.5 |
| 20260507111058 | 41 | 129 | 0.0 | 0.0 | 0.00 | 0.00 | 0.00 | 75 | 1012.5 |
| 20260507110554 | 41 | 122 | 0.0 | 0.0 | 0.00 | 0.00 | 0.00 | 77 | 1012.3 |
| 20260507110051 | 42 | 119 | 0.0 | 0.0 | 0.00 | 0.00 | 0.00 | 75 | 1012.3 |
| 20260507105548 | 41 | 119 | 0.0 | 0.0 | 0.00 | 0.00 | 0.00 | 75 | 1012.1 |
| 20260507105044 | 41 | 119 | 0.0 | 0.0 | 0.00 | 0.00 | 0.00 | 77 | 1012.0 |
| 20260507104542 | 40 | 119 | 0.0 | 0.0 | 0.00 | 0.00 | 0.00 | 79 | 1012.0 |
| 20260507104038 | 39 | 126 | 0.0 | 0.0 | 0.00 | 0.00 | 0.00 | 79 | 1012.0 |
| 20260507103534 | 39 | 119 | 0.0 | 0.0 | 0.00 | 0.00 | 0.00 | 79 | 1012.1 |
| 20260507103031 | 39 | 119 | 0.0 | 0.0 | 0.00 | 0.00 | 0.00 | 81 | 1012.0 |
| 20260507102527 | 38 | 119 | 0.0 | 0.0 | 0.00 | 0.00 | 0.00 | 83 | 1011.9 |
| 20260507102023 | 38 | 122 | 0.0 | 0.0 | 0.00 | 0.00 | 0.00 | 81 | 1011.9 |
| 20260507101519 | 38 | 120 | 0.0 | 0.0 | 0.00 | 0.00 | 0.00 | 79 | 1012.0 |
| 20260507101016 | 38 | 121 | 0.0 | 0.0 | 0.00 | 0.00 | 0.00 | 78 | 1012.0 |
| 20260507100513 | 39 | 123 | 0.0 | 0.0 | 0.00 | 0.00 | 0.00 | 77 | 1011.9 |
| 20260507100011 | 39 | 127 | 0.0 | 0.0 | 0.00 | 0.00 | 0.00 | 77 | 1011.6 |
| 20260507095509 | 39 | 126 | 0.0 | 0.0 | 0.00 | 0.00 | 0.00 | 76 | 1011.8 |
| 20260507095005 | 39 | 122 | 0.0 | 0.0 | 0.00 | 0.00 | 0.00 | 76 | 1011.7 |
| 20260507094501 | 39 | 119 | 0.0 | 0.0 | 0.00 | 0.00 | 0.00 | 75 | 1011.7 |
| 20260507093959 | 40 | 116 | 0.0 | 0.0 | 0.00 | 0.00 | 0.00 | 74 | 1011.8 |
| 20260507093456 | 40 | 123 | 0.0 | 0.0 | 0.00 | 0.00 | 0.00 | 74 | 1011.7 |
| 20260507092954 | 40 | 129 | 0.0 | 0.0 | 0.00 | 0.00 | 0.00 | 74 | 1011.7 |
| 20260507092450 | 40 | 122 | 0.0 | 0.0 | 0.00 | 0.00 | 0.00 | 74 | 1011.5 |
| 20260507091947 | 39 | 134 | 0.0 | 0.0 | 0.00 | 0.00 | 0.00 | 75 | 1011.7 |
| 20260507091444 | 39 | 120 | 0.0 | 0.0 | 0.00 | 0.00 | 0.00 | 77 | 1011.7 |
| 20260507090939 | 39 | 120 | 0.0 | 0.0 | 0.00 | 0.00 | 0.00 | 77 | 1011.7 |
| 20260507090430 | 39 | 120 | 0.0 | 0.0 | 0.00 | 0.00 | 0.00 | 77 | 1011.7 |
| 20260507085927 | 40 | 120 | 0.0 | 0.0 | 0.00 | 0.00 | 0.00 | 76 | 1011.7 |
| 20260507085424 | 40 | 120 | 0.0 | 0.0 | 0.00 | 0.00 | 0.00 | 75 | 1011.7 |
| 20260507084921 | 41 | 120 | 0.0 | 0.0 | 0.00 | 0.00 | 0.00 | 74 | 1011.7 |
| 20260507084418 | 41 | 123 | 0.0 | 0.0 | 0.00 | 0.00 | 0.00 | 72 | 1011.7 |
| 20260507083915 | 41 | 120 | 0.0 | 0.0 | 0.00 | 0.00 | 0.00 | 72 | 1011.6 |
| 20260507083411 | 41 | 124 | 0.0 | 0.0 | 0.00 | 0.00 | 0.00 | 72 | 1011.7 |
| 20260507082907 | 41 | 119 | 0.0 | 0.0 | 0.00 | 0.00 | 0.00 | 71 | 1011.6 |
| 20260507082403 | 42 | 120 | 0.0 | 0.0 | 0.00 | 0.00 | 0.00 | 71 | 1011.7 |
| 20260507081900 | 42 | 120 | 0.0 | 0.0 | 0.00 | 0.00 | 0.00 | 70 | 1011.7 |
| 20260507081356 | 43 | 119 | 0.0 | 0.0 | 0.00 | 0.00 | 0.00 | 69 | 1012.0 |
| 20260507080853 | 43 | 118 | 0.0 | 0.0 | 0.00 | 0.00 | 0.00 | 68 | 1011.9 |
| 20260507080349 | 44 | 121 | 0.0 | 0.0 | 0.00 | 0.00 | 0.00 | 66 | 1011.8 |
| 20260507075845 | 44 | 121 | 0.0 | 1.0 | 0.00 | 0.00 | 0.00 | 65 | 1011.9 |
| 20260507075341 | 44 | 125 | 0.0 | 0.0 | 0.00 | 0.00 | 0.00 | 65 | 1011.8 |
| 20260507074837 | 45 | 135 | 1.0 | 1.0 | 0.00 | 0.00 | 0.00 | 64 | 1011.8 |
| 20260507074335 | 45 | 119 | 0.0 | 1.0 | 0.00 | 0.00 | 0.00 | 63 | 1011.9 |
| 20260507073832 | 45 | 132 | 0.0 | 1.0 | 0.00 | 0.00 | 0.00 | 65 | 1011.8 |
| 20260507073329 | 45 | 132 | 0.0 | 2.0 | 0.00 | 0.00 | 0.00 | 65 | 1011.8 |
| 20260507072826 | 45 | 129 | 0.0 | 1.0 | 0.00 | 0.00 | 0.00 | 65 | 1011.8 |
| 20260507072323 | 45 | 119 | 0.0 | 0.0 | 0.00 | 0.00 | 0.00 | 64 | 1011.8 |
| 20260507071821 | 45 | 125 | 0.0 | 1.0 | 0.00 | 0.00 | 0.00 | 64 | 1011.7 |
| 20260507071318 | 45 | 121 | 0.0 | 0.0 | 0.00 | 0.00 | 0.00 | 64 | 1011.6 |
| 20260507070814 | 45 | 177 | 1.0 | 1.0 | 0.00 | 0.00 | 0.00 | 63 | 1011.7 |
| 20260507070311 | 45 | 118 | 0.0 | 0.0 | 0.00 | 0.00 | 0.00 | 65 | 1011.7 |
| 20260507065808 | 46 | 132 | 0.0 | 0.0 | 0.00 | 0.00 | 0.00 | 62 | 1011.6 |
| 20260507065306 | 46 | 123 | 0.0 | 1.0 | 0.00 | 0.00 | 0.00 | 62 | 1011.8 |
| 20260507064802 | 46 | 120 | 0.0 | 1.0 | 0.00 | 0.00 | 0.00 | 64 | 1011.7 |
| 20260507064300 | 45 | 124 | 1.0 | 1.0 | 0.00 | 0.00 | 0.00 | 63 | 1011.8 |
| 20260507063758 | 45 | 136 | 0.0 | 1.0 | 0.00 | 0.00 | 0.00 | 63 | 1011.9 |
| 20260507063254 | 45 | 129 | 0.0 | 1.0 | 0.00 | 0.00 | 0.00 | 64 | 1011.9 |
| 20260507062751 | 45 | 126 | 0.0 | 0.0 | 0.00 | 0.00 | 0.00 | 63 | 1011.7 |
| 20260507062248 | 45 | 135 | 0.0 | 0.0 | 0.00 | 0.00 | 0.00 | 63 | 1011.8 |
| 20260507061747 | 45 | 122 | 0.0 | 1.0 | 0.00 | 0.00 | 0.00 | 62 | 1012.1 |
| 20260507061244 | 46 | 117 | 0.0 | 1.0 | 0.00 | 0.00 | 0.00 | 62 | 1012.0 |
| 20260507060742 | 46 | 120 | 1.0 | 2.0 | 0.00 | 0.00 | 0.00 | 61 | 1012.0 |
| 20260507060238 | 46 | 119 | 0.0 | 0.0 | 0.00 | 0.00 | 0.00 | 62 | 1012.2 |
| 20260507055735 | 46 | 166 | 1.0 | 1.0 | 0.00 | 0.00 | 0.00 | 60 | 1012.1 |
| 20260507055230 | 46 | 129 | 0.0 | 2.0 | 0.00 | 0.00 | 0.00 | 62 | 1012.2 |
| 20260507054726 | 46 | 124 | 0.0 | 1.0 | 0.00 | 0.00 | 0.00 | 62 | 1012.3 |
| 20260507054224 | 46 | 134 | 1.0 | 1.0 | 0.00 | 0.00 | 0.00 | 61 | 1012.2 |
| 20260507053721 | 46 | 275 | 2.0 | 3.0 | 0.00 | 0.00 | 0.00 | 62 | 1012.1 |
| 20260507053219 | 46 | 118 | 0.0 | 0.0 | 0.00 | 0.00 | 0.00 | 63 | 1011.9 |
| 20260507052718 | 46 | 115 | 0.0 | 1.0 | 0.00 | 0.00 | 0.00 | 62 | 1011.9 |
| 20260507052213 | 47 | 125 | 0.0 | 0.0 | 0.00 | 0.00 | 0.00 | 62 | 1012.1 |
| 20260507051712 | 47 | 125 | 0.0 | 1.0 | 0.00 | 0.00 | 0.00 | 61 | 1012.3 |
| 20260507051208 | 47 | 160 | 1.0 | 1.0 | 0.00 | 0.00 | 0.00 | 61 | 1012.2 |
| 20260507050704 | 47 | 117 | 0.0 | 3.0 | 0.00 | 0.00 | 0.00 | 60 | 1012.2 |
| 20260507050201 | 47 | 156 | 1.0 | 1.0 | 0.00 | 0.00 | 0.00 | 60 | 1012.1 |
| 20260507045658 | 47 | 221 | 2.0 | 2.0 | 0.00 | 0.00 | 0.00 | 60 | 1012.2 |
| 20260507045156 | 48 | 160 | 0.0 | 2.0 | 0.00 | 0.00 | 0.00 | 62 | 1012.1 |
| 20260507044652 | 48 | 314 | 2.0 | 2.0 | 0.00 | 0.00 | 0.00 | 63 | 1012.1 |
| 20260507044148 | 48 | 124 | 0.0 | 2.0 | 0.00 | 0.00 | 0.00 | 63 | 1012.0 |
| 20260507043644 | 48 | 129 | 0.0 | 0.0 | 0.00 | 0.00 | 0.00 | 64 | 1012.0 |
| 20260507043142 | 48 | 150 | 1.0 | 2.0 | 0.00 | 0.00 | 0.00 | 64 | 1012.1 |
| 20260507042638 | 48 | 119 | 0.0 | 1.0 | 0.00 | 0.00 | 0.00 | 66 | 1012.2 |
| 20260507042134 | 48 | 121 | 0.0 | 0.0 | 0.00 | 0.00 | 0.00 | 64 | 1012.1 |
| 20260507041631 | 48 | 179 | 1.0 | 2.0 | 0.00 | 0.00 | 0.00 | 63 | 1012.0 |
| 20260507041127 | 48 | 121 | 0.0 | 0.0 | 0.00 | 0.00 | 0.00 | 65 | 1011.8 |
| 20260507040624 | 48 | 139 | 1.0 | 1.0 | 0.00 | 0.00 | 0.00 | 66 | 1011.6 |
| 20260507040120 | 48 | 121 | 0.0 | 0.0 | 0.00 | 0.11 | 0.11 | 66 | 1011.9 |
| 20260507035616 | 48 | 121 | 0.0 | 1.0 | 0.00 | 0.11 | 0.11 | 65 | 1012.0 |
| 20260507035112 | 48 | 185 | 2.0 | 2.0 | 0.00 | 0.11 | 0.11 | 64 | 1011.7 |
| 20260507034609 | 48 | 120 | 0.0 | 2.0 | 0.00 | 0.11 | 0.11 | 66 | 1012.1 |
| 20260507034107 | 48 | 282 | 3.0 | 4.0 | 0.00 | 0.11 | 0.11 | 64 | 1012.0 |
| 20260507033605 | 48 | 139 | 0.0 | 1.0 | 0.00 | 0.11 | 0.11 | 65 | 1011.8 |
| 20260507033056 | 49 | 139 | 1.0 | 1.0 | 0.00 | 0.11 | 0.11 | 66 | 1011.8 |
| 20260507032554 | 49 | 127 | 1.0 | 2.0 | 0.00 | 0.11 | 0.11 | 66 | 1011.8 |
| 20260507032049 | 49 | 230 | 1.0 | 2.0 | 0.00 | 0.11 | 0.11 | 66 | 1011.6 |
| 20260507031546 | 49 | 144 | 1.0 | 2.0 | 0.00 | 0.11 | 0.11 | 66 | 1011.7 |
| 20260507031038 | 49 | 315 | 4.0 | 4.0 | 0.00 | 0.11 | 0.11 | 68 | 1011.8 |
| 20260507030534 | 49 | 110 | 1.0 | 2.0 | 0.00 | 0.11 | 0.11 | 71 | 1011.5 |
| 20260507030033 | 49 | 220 | 3.0 | 4.0 | 0.00 | 0.11 | 0.11 | 72 | 1011.6 |
| 20260507025529 | 49 | 117 | 0.0 | 3.0 | 0.00 | 0.11 | 0.11 | 75 | 1011.5 |
| 20260507025027 | 50 | 247 | 2.0 | 3.0 | 0.00 | 0.11 | 0.11 | 75 | 1011.5 |
| 20260507024524 | 50 | 103 | 0.0 | 3.0 | 0.00 | 0.11 | 0.11 | 74 | 1011.5 |
| 20260507024021 | 50 | 86 | 1.0 | 4.0 | 0.00 | 0.11 | 0.11 | 73 | 1011.3 |
| 20260507023516 | 50 | 110 | 1.0 | 2.0 | 0.00 | 0.11 | 0.11 | 74 | 1011.3 |
| 20260507023014 | 49 | 132 | 1.0 | 3.0 | 0.00 | 0.11 | 0.11 | 77 | 1011.1 |
| 20260507022510 | 50 | 118 | 0.0 | 2.0 | 0.00 | 0.11 | 0.11 | 79 | 1011.1 |
| 20260507022006 | 50 | 141 | 1.0 | 2.0 | 0.00 | 0.11 | 0.11 | 78 | 1011.0 |
| 20260507021501 | 50 | 135 | 0.0 | 1.0 | 0.00 | 0.11 | 0.11 | 80 | 1010.9 |
| 20260507020959 | 50 | 170 | 0.0 | 4.0 | 0.00 | 0.11 | 0.11 | 79 | 1011.1 |
| 20260507020456 | 50 | 153 | 1.0 | 4.0 | 0.00 | 0.11 | 0.11 | 80 | 1011.0 |
| 20260507015953 | 50 | 129 | 1.0 | 3.0 | 0.00 | 0.11 | 0.11 | 80 | 1011.1 |
| 20260507015451 | 50 | 141 | 0.0 | 1.0 | 0.00 | 0.11 | 0.11 | 82 | 1011.0 |
| 20260507014948 | 50 | 122 | 0.0 | 0.0 | 0.00 | 0.11 | 0.11 | 82 | 1011.2 |
| 20260507014444 | 50 | 128 | 0.0 | 1.0 | 0.00 | 0.11 | 0.11 | 81 | 1011.5 |
| 20260507013940 | 50 | 127 | 0.0 | 0.0 | 0.00 | 0.11 | 0.11 | 82 | 1011.3 |
| 20260507013437 | 50 | 123 | 0.0 | 0.0 | 0.00 | 0.11 | 0.11 | 82 | 1011.4 |
| 20260507012935 | 51 | 120 | 0.0 | 0.0 | 0.00 | 0.11 | 0.11 | 81 | 1011.4 |
| 20260507012432 | 51 | 120 | 0.0 | 0.0 | 0.00 | 0.11 | 0.11 | 81 | 1011.4 |
| 20260507011928 | 51 | 124 | 0.0 | 0.0 | 0.00 | 0.11 | 0.11 | 79 | 1011.5 |
| 20260507011426 | 51 | 185 | 1.0 | 2.0 | 0.00 | 0.11 | 0.11 | 78 | 1011.4 |
| 20260507010920 | 51 | 169 | 0.0 | 3.0 | 0.00 | 0.11 | 0.11 | 78 | 1011.6 |
| 20260507010415 | 51 | 136 | 1.0 | 2.0 | 0.00 | 0.11 | 0.11 | 78 | 1011.4 |
| 20260507005913 | 51 | 131 | 1.0 | 2.0 | 0.00 | 0.11 | 0.11 | 79 | 1011.4 |
| 20260507005410 | 51 | 142 | 2.0 | 2.0 | 0.00 | 0.11 | 0.11 | 78 | 1011.2 |
| 20260507004906 | 51 | 148 | 0.0 | 3.0 | 0.00 | 0.11 | 0.11 | 78 | 1011.3 |
| 20260507004403 | 51 | 165 | 2.0 | 2.0 | 0.00 | 0.11 | 0.11 | 78 | 1011.5 |
| 20260507003901 | 51 | 210 | 2.0 | 2.0 | 0.00 | 0.11 | 0.11 | 79 | 1011.3 |
| 20260507003355 | 52 | 106 | 1.0 | 3.0 | 0.00 | 0.11 | 0.11 | 78 | 1011.4 |
| 20260507002851 | 51 | 207 | 2.0 | 3.0 | 0.00 | 0.11 | 0.11 | 79 | 1011.1 |
| 20260507002347 | 51 | 143 | 1.0 | 3.0 | 0.00 | 0.11 | 0.11 | 80 | 1011.0 |
| 20260507001845 | 51 | 262 | 3.0 | 4.0 | 0.00 | 0.11 | 0.11 | 81 | 1010.9 |
| 20260507001341 | 51 | 151 | 0.0 | 1.0 | 0.00 | 0.11 | 0.11 | 83 | 1010.7 |
| 20260507000838 | 51 | 164 | 1.0 | 1.0 | 0.00 | 0.11 | 0.11 | 83 | 1010.9 |
| 20260507000335 | 52 | 144 | 1.0 | 2.0 | 0.00 | 0.11 | 0.11 | 82 | 1010.7 |
| 20260506235830 | 52 | 129 | 1.0 | 2.0 | 0.00 | 0.11 | 0.11 | 82 | 1010.7 |
| 20260506235326 | 52 | 127 | 1.0 | 2.0 | 0.00 | 0.11 | 0.11 | 81 | 1010.4 |
| 20260506234822 | 52 | 120 | 0.0 | 3.0 | 0.00 | 0.11 | 0.11 | 81 | 1010.3 |
| 20260506234320 | 52 | 215 | 3.0 | 4.0 | 0.00 | 0.11 | 0.11 | 82 | 1010.1 |
| 20260506233818 | 52 | 135 | 1.0 | 3.0 | 0.00 | 0.11 | 0.11 | 82 | 1010.3 |
| 20260506233313 | 52 | 132 | 0.0 | 1.0 | 0.00 | 0.11 | 0.11 | 83 | 1010.1 |
| 20260506232810 | 52 | 245 | 2.0 | 3.0 | 0.00 | 0.11 | 0.11 | 81 | 1010.1 |
| 20260506232306 | 52 | 124 | 0.0 | 3.0 | 0.00 | 0.11 | 0.11 | 82 | 1009.7 |
| 20260506231803 | 52 | 131 | 0.0 | 1.0 | 0.00 | 0.11 | 0.11 | 82 | 1009.8 |
| 20260506231301 | 52 | 258 | 3.0 | 4.0 | 0.00 | 0.11 | 0.11 | 81 | 1009.8 |
| 20260506230758 | 52 | 214 | 2.0 | 4.0 | 0.00 | 0.11 | 0.11 | 81 | 1009.8 |
| 20260506230255 | 52 | 155 | 1.0 | 3.0 | 0.00 | 0.11 | 0.11 | 82 | 1009.9 |
| 20260506225751 | 53 | 154 | 1.0 | 2.0 | 0.00 | 0.11 | 0.11 | 83 | 1010.1 |
| 20260506225248 | 53 | 247 | 2.0 | 3.0 | 0.00 | 0.11 | 0.11 | 83 | 1010.0 |
| 20260506224739 | 53 | 197 | 1.0 | 7.0 | 0.00 | 0.11 | 0.11 | 83 | 1010.1 |
| 20260506224236 | 53 | 119 | 2.0 | 7.0 | 0.00 | 0.11 | 0.11 | 82 | 1009.9 |
| 20260506223733 | 53 | 249 | 4.0 | 4.0 | 0.00 | 0.11 | 0.11 | 82 | 1010.0 |
| 20260506223228 | 53 | 151 | 1.0 | 6.0 | 0.00 | 0.11 | 0.11 | 82 | 1009.7 |
| 20260506222726 | 54 | 110 | 3.0 | 7.0 | 0.00 | 0.11 | 0.11 | 81 | 1009.6 |
| 20260506222221 | 54 | 261 | 4.0 | 6.0 | 0.00 | 0.11 | 0.11 | 81 | 1009.2 |
| 20260506221719 | 54 | 150 | 2.0 | 6.0 | 0.00 | 0.11 | 0.11 | 81 | 1009.2 |
| 20260506221217 | 54 | 253 | 5.0 | 7.0 | 0.00 | 0.11 | 0.11 | 81 | 1009.1 |
| 20260506220714 | 54 | 286 | 2.0 | 4.0 | 0.00 | 0.11 | 0.11 | 82 | 1008.8 |
| 20260506220208 | 55 | 283 | 5.0 | 8.0 | 0.00 | 0.11 | 0.11 | 80 | 1009.2 |
| 20260506215705 | 55 | 279 | 2.0 | 8.0 | 0.00 | 0.11 | 0.11 | 79 | 1009.1 |
| 20260506215201 | 55 | 247 | 3.0 | 4.0 | 0.00 | 0.11 | 0.11 | 80 | 1009.0 |
| 20260506214657 | 55 | 157 | 1.0 | 6.0 | 0.00 | 0.11 | 0.11 | 81 | 1009.0 |
| 20260506214155 | 55 | 251 | 6.0 | 8.0 | 0.00 | 0.11 | 0.11 | 80 | 1008.9 |
| 20260506213653 | 55 | 182 | 4.0 | 6.0 | 0.00 | 0.11 | 0.11 | 81 | 1008.8 |
| 20260506213150 | 56 | 289 | 4.0 | 4.0 | 0.00 | 0.11 | 0.11 | 82 | 1008.6 |
| 20260506212648 | 57 | 237 | 3.0 | 9.0 | 0.00 | 0.11 | 0.11 | 80 | 1008.5 |
| 20260506212142 | 57 | 287 | 2.0 | 8.0 | 0.00 | 0.11 | 0.11 | 79 | 1008.5 |
| 20260506211638 | 57 | 198 | 2.0 | 3.0 | 0.00 | 0.11 | 0.11 | 80 | 1008.3 |
| 20260506211135 | 57 | 273 | 6.0 | 11.0 | 0.00 | 0.11 | 0.11 | 79 | 1008.1 |
| 20260506210632 | 57 | 216 | 2.0 | 6.0 | 0.00 | 0.11 | 0.11 | 79 | 1008.2 |
| 20260506210129 | 57 | 282 | 3.0 | 6.0 | 0.00 | 0.11 | 0.11 | 81 | 1008.2 |
| 20260506205626 | 58 | 277 | 3.0 | 7.0 | 0.00 | 0.11 | 0.11 | 81 | 1008.2 |
| 20260506205126 | 57 | 218 | 2.0 | 4.0 | 0.00 | 0.11 | 0.11 | 81 | 1007.9 |
| 20260506204624 | 57 | 262 | 4.0 | 7.0 | 0.00 | 0.11 | 0.11 | 81 | 1007.9 |
| 20260506204121 | 57 | 229 | 4.0 | 8.0 | 0.00 | 0.11 | 0.11 | 83 | 1008.0 |
| 20260506203614 | 57 | 283 | 6.0 | 8.0 | 0.00 | 0.11 | 0.11 | 84 | 1007.9 |
| 20260506203110 | 58 | 281 | 5.0 | 8.0 | 0.00 | 0.11 | 0.11 | 83 | 1007.9 |
| 20260506202608 | 58 | 295 | 3.0 | 4.0 | 0.00 | 0.11 | 0.11 | 83 | 1007.8 |
| 20260506202104 | 58 | 250 | 3.0 | 7.0 | 0.00 | 0.11 | 0.11 | 84 | 1007.8 |
| 20260506201602 | 58 | 250 | 5.0 | 7.0 | 0.00 | 0.11 | 0.11 | 83 | 1007.8 |
| 20260506201058 | 58 | 329 | 4.0 | 7.0 | 0.00 | 0.11 | 0.11 | 84 | 1007.5 |
| 20260506200554 | 58 | 275 | 3.0 | 6.0 | 0.00 | 0.11 | 0.11 | 85 | 1007.7 |
| 20260506200051 | 58 | 244 | 4.0 | 8.0 | 0.00 | 0.11 | 0.11 | 85 | 1007.4 |
| 20260506195548 | 58 | 291 | 4.0 | 7.0 | 0.00 | 0.11 | 0.11 | 86 | 1007.6 |
| 20260506195044 | 57 | 253 | 6.0 | 8.0 | 0.00 | 0.11 | 0.11 | 86 | 1007.5 |
| 20260506194543 | 58 | 328 | 8.0 | 9.0 | 0.00 | 0.11 | 0.11 | 86 | 1007.4 |
| 20260506194038 | 59 | 249 | 3.0 | 6.0 | 0.00 | 0.11 | 0.11 | 86 | 1007.3 |
| 20260506193536 | 59 | 278 | 6.0 | 9.0 | 0.00 | 0.11 | 0.11 | 86 | 1007.3 |
| 20260506193033 | 59 | 285 | 5.0 | 13.0 | 0.00 | 0.11 | 0.11 | 86 | 1007.1 |
| 20260506192529 | 59 | 185 | 3.0 | 9.0 | 0.00 | 0.11 | 0.11 | 85 | 1007.1 |
| 20260506192025 | 59 | 270 | 6.0 | 8.0 | 0.00 | 0.11 | 0.11 | 84 | 1007.2 |
| 20260506191522 | 60 | 232 | 4.0 | 10.0 | 0.00 | 0.11 | 0.11 | 85 | 1007.0 |
| 20260506191018 | 60 | 275 | 5.0 | 8.0 | 0.00 | 0.11 | 0.11 | 86 | 1007.1 |
| 20260506190516 | 60 | 120 | 1.0 | 7.0 | 0.00 | 0.11 | 0.11 | 87 | 1006.9 |
| 20260506190013 | 60 | 224 | 1.0 | 3.0 | 0.00 | 0.11 | 0.11 | 88 | 1006.8 |
| 20260506185510 | 61 | 143 | 2.0 | 3.0 | 0.00 | 0.11 | 0.11 | 87 | 1006.9 |
| 20260506185006 | 61 | 235 | 6.0 | 8.0 | 0.00 | 0.11 | 0.11 | 87 | 1006.8 |
| 20260506184504 | 61 | 152 | 1.0 | 2.0 | 0.00 | 0.11 | 0.11 | 89 | 1006.8 |
| 20260506184001 | 60 | 294 | 2.0 | 4.0 | 0.00 | 0.11 | 0.11 | 89 | 1006.9 |
| 20260506183456 | 59 | 210 | 2.0 | 3.0 | 0.00 | 0.11 | 0.11 | 90 | 1006.9 |
| 20260506182953 | 59 | 172 | 2.0 | 2.0 | 0.00 | 0.11 | 0.11 | 92 | 1006.9 |
| 20260506182450 | 59 | 193 | 1.0 | 3.0 | 0.00 | 0.11 | 0.11 | 93 | 1006.9 |
| 20260506181947 | 58 | 161 | 2.0 | 3.0 | 0.00 | 0.11 | 0.11 | 92 | 1006.9 |
| 20260506181446 | 58 | 257 | 3.0 | 4.0 | 0.00 | 0.11 | 0.11 | 93 | 1006.8 |
| 20260506180942 | 58 | 228 | 3.0 | 3.0 | 0.00 | 0.11 | 0.11 | 94 | 1006.9 |
| 20260506180438 | 58 | 256 | 4.0 | 7.0 | 0.00 | 0.11 | 0.11 | 95 | 1007.0 |
| 20260506175935 | 58 | 285 | 2.0 | 3.0 | 0.00 | 0.11 | 0.11 | 95 | 1007.0 |
| 20260506175432 | 58 | 235 | 2.0 | 7.0 | 0.05 | 0.11 | 0.11 | 96 | 1006.7 |
| 20260506174928 | 58 | 152 | 4.0 | 4.0 | 0.05 | 0.11 | 0.11 | 96 | 1006.8 |
| 20260506174426 | 58 | 235 | 3.0 | 3.0 | 0.00 | 0.10 | 0.10 | 96 | 1006.9 |
| 20260506173917 | 58 | 265 | 2.0 | 3.0 | 0.00 | 0.10 | 0.10 | 96 | 1006.7 |
| 20260506173414 | 58 | 222 | 2.0 | 6.0 | 0.00 | 0.10 | 0.10 | 95 | 1006.4 |
| 20260506172912 | 58 | 119 | 1.0 | 1.0 | 0.00 | 0.10 | 0.10 | 95 | 1006.8 |
| 20260506172408 | 59 | 140 | 2.0 | 3.0 | 0.00 | 0.10 | 0.10 | 95 | 1006.5 |
| 20260506171905 | 59 | 176 | 4.0 | 6.0 | 0.00 | 0.10 | 0.10 | 94 | 1006.5 |
| 20260506171402 | 58 | 155 | 1.0 | 2.0 | 0.00 | 0.10 | 0.10 | 94 | 1006.5 |
| 20260506170900 | 59 | 202 | 2.0 | 2.0 | 0.00 | 0.10 | 0.10 | 93 | 1006.4 |
| 20260506170355 | 59 | 167 | 2.0 | 3.0 | 0.00 | 0.10 | 0.10 | 92 | 1006.3 |
| 20260506165849 | 60 | 141 | 1.0 | 2.0 | 0.00 | 0.10 | 0.10 | 91 | 1006.5 |
| 20260506165346 | 60 | 143 | 2.0 | 2.0 | 0.00 | 0.10 | 0.10 | 91 | 1006.3 |
| 20260506164842 | 60 | 238 | 4.0 | 6.0 | 0.00 | 0.10 | 0.10 | 91 | 1006.2 |
| 20260506164339 | 61 | 168 | 0.0 | 3.0 | 0.00 | 0.10 | 0.10 | 92 | 1006.3 |
| 20260506163837 | 60 | 188 | 1.0 | 4.0 | 0.00 | 0.10 | 0.10 | 91 | 1006.2 |
| 20260506163331 | 60 | 153 | 1.0 | 4.0 | 0.00 | 0.10 | 0.10 | 93 | 1006.4 |
| 20260506162827 | 60 | 127 | 1.0 | 1.0 | 0.00 | 0.10 | 0.10 | 94 | 1006.4 |
| 20260506162325 | 59 | 142 | 2.0 | 3.0 | 0.00 | 0.10 | 0.10 | 93 | 1006.4 |
| 20260506161822 | 60 | 162 | 2.0 | 2.0 | 0.00 | 0.10 | 0.10 | 94 | 1006.5 |
| 20260506161319 | 59 | 182 | 2.0 | 3.0 | 0.00 | 0.10 | 0.10 | 94 | 1006.5 |
| 20260506160812 | 59 | 162 | 1.0 | 2.0 | 0.00 | 0.10 | 0.10 | 94 | 1006.5 |
| 20260506160308 | 59 | 226 | 2.0 | 3.0 | 0.00 | 0.10 | 0.10 | 95 | 1006.4 |
| 20260506155807 | 58 | 253 | 2.0 | 4.0 | 0.00 | 0.10 | 0.10 | 95 | 1006.2 |
| 20260506155306 | 57 | 124 | 1.0 | 2.0 | 0.00 | 0.10 | 0.10 | 95 | 1006.5 |
| 20260506153415 | 57 | 194 | 2.0 | 3.0 | 0.00 | 0.10 | 0.10 | 94 | 1006.5 |
| 20260506152913 | 57 | 152 | 1.0 | 3.0 | 0.00 | 0.10 | 0.10 | 93 | 1006.4 |
| 20260506152409 | 57 | 126 | 1.0 | 2.0 | 0.00 | 0.10 | 0.10 | 93 | 1006.2 |
| 20260506151908 | 57 | 175 | 1.0 | 2.0 | 0.00 | 0.10 | 0.10 | 93 | 1006.3 |
| 20260506151404 | 57 | 139 | 1.0 | 2.0 | 0.00 | 0.10 | 0.10 | 92 | 1006.3 |
| 20260506150902 | 57 | 232 | 2.0 | 3.0 | 0.00 | 0.10 | 0.10 | 93 | 1006.3 |
| 20260506150358 | 57 | 302 | 3.0 | 3.0 | 0.00 | 0.10 | 0.10 | 93 | 1006.3 |
| 20260506145855 | 57 | 124 | 1.0 | 2.0 | 0.00 | 0.10 | 0.10 | 93 | 1006.2 |
| 20260506145351 | 57 | 151 | 2.0 | 3.0 | 0.00 | 0.10 | 0.10 | 93 | 1006.1 |
| 20260506144849 | 57 | 237 | 2.0 | 3.0 | 0.00 | 0.10 | 0.10 | 93 | 1006.1 |
| 20260506144345 | 57 | 167 | 1.0 | 3.0 | 0.00 | 0.10 | 0.10 | 93 | 1005.8 |
| 20260506143844 | 57 | 246 | 5.0 | 7.0 | 0.00 | 0.10 | 0.10 | 93 | 1006.0 |
| 20260506143340 | 57 | 120 | 2.0 | 2.0 | 0.00 | 0.10 | 0.10 | 93 | 1006.1 |
| 20260506142839 | 57 | 146 | 2.0 | 3.0 | 0.00 | 0.10 | 0.10 | 93 | 1006.1 |
| 20260506142336 | 57 | 130 | 2.0 | 6.0 | 0.00 | 0.10 | 0.10 | 93 | 1005.9 |
| 20260506141835 | 56 | 130 | 1.0 | 4.0 | 0.00 | 0.10 | 0.10 | 93 | 1006.0 |
| 20260506141332 | 56 | 136 | 1.0 | 2.0 | 0.00 | 0.10 | 0.10 | 93 | 1006.0 |
| 20260506140830 | 56 | 212 | 1.0 | 2.0 | 0.00 | 0.10 | 0.10 | 93 | 1005.9 |
| 20260506140327 | 56 | 263 | 2.0 | 3.0 | 0.00 | 0.10 | 0.10 | 93 | 1005.9 |
| 20260506135824 | 56 | 211 | 2.0 | 3.0 | 0.00 | 0.10 | 0.10 | 93 | 1005.8 |
| 20260506135320 | 56 | 147 | 2.0 | 2.0 | 0.00 | 0.10 | 0.10 | 92 | 1005.8 |
| 20260506134817 | 56 | 154 | 2.0 | 3.0 | 0.00 | 0.10 | 0.10 | 93 | 1006.0 |
| 20260506134313 | 56 | 149 | 1.0 | 3.0 | 0.00 | 0.10 | 0.10 | 93 | 1006.0 |
| 20260506133810 | 56 | 121 | 1.0 | 2.0 | 0.07 | 0.10 | 0.10 | 93 | 1006.0 |
| 20260506133307 | 56 | 178 | 1.0 | 1.0 | 0.07 | 0.10 | 0.10 | 93 | 1006.0 |
| 20260506132804 | 56 | 207 | 2.0 | 3.0 | 0.00 | 0.09 | 0.09 | 93 | 1006.0 |
| 20260506132301 | 56 | 157 | 2.0 | 2.0 | 0.00 | 0.09 | 0.09 | 92 | 1006.0 |
| 20260506131759 | 56 | 127 | 2.0 | 3.0 | 0.00 | 0.09 | 0.09 | 93 | 1006.1 |
| 20260506131254 | 56 | 186 | 1.0 | 2.0 | 0.00 | 0.09 | 0.09 | 92 | 1006.2 |
| 20260506130752 | 56 | 243 | 2.0 | 3.0 | 0.00 | 0.09 | 0.09 | 91 | 1006.2 |
| 20260506130248 | 56 | 250 | 2.0 | 3.0 | 0.00 | 0.09 | 0.09 | 92 | 1006.1 |
| 20260506125747 | 55 | 145 | 1.0 | 2.0 | 0.00 | 0.09 | 0.09 | 92 | 1006.1 |
| 20260506125244 | 55 | 122 | 0.0 | 1.0 | 0.00 | 0.09 | 0.09 | 92 | 1006.1 |
| 20260506124743 | 55 | 120 | 0.0 | 1.0 | 0.00 | 0.09 | 0.09 | 92 | 1006.0 |
| 20260506124240 | 55 | 146 | 1.0 | 2.0 | 0.00 | 0.09 | 0.09 | 92 | 1006.1 |
| 20260506123737 | 55 | 163 | 2.0 | 2.0 | 0.00 | 0.09 | 0.09 | 93 | 1005.9 |
| 20260506123236 | 55 | 162 | 1.0 | 2.0 | 0.00 | 0.09 | 0.09 | 93 | 1006.0 |
| 20260506122732 | 55 | 131 | 1.0 | 2.0 | 0.00 | 0.09 | 0.09 | 94 | 1006.2 |
| 20260506122229 | 55 | 113 | 0.0 | 3.0 | 0.05 | 0.09 | 0.09 | 95 | 1006.0 |
| 20260506121728 | 55 | 124 | 0.0 | 0.0 | 0.12 | 0.09 | 0.09 | 95 | 1005.9 |
| 20260506121224 | 55 | 137 | 0.0 | 0.0 | 0.07 | 0.08 | 0.08 | 95 | 1006.0 |
| 20260506120722 | 55 | 146 | 1.0 | 2.0 | 0.05 | 0.07 | 0.07 | 95 | 1006.4 |
| 20260506120219 | 55 | 126 | 0.0 | 2.0 | 0.12 | 0.07 | 0.07 | 95 | 1006.4 |
| 20260506115717 | 55 | 123 | 0.0 | 0.0 | 0.07 | 0.06 | 0.06 | 95 | 1006.5 |